Flag for Canada Weather past 2 weeks in Langley, British Columbia, Canada

Now
59 °F

Refreshingly cool.


Feels Like: 58 °F
Forecast: 43 / 62 °F
Wind: 6 mph from Southwest

Location: P. Meadows Coastal Station

Current Time: May 4, 2015 at 2:08:28 PM

Latest Report: May 4, 2015 at 1:00 PM


Visibility: N/A

Pressure: 29.90 "Hg

Humidity: 56%

Dew point: 43 °F

Location of LangleyLocation

Historic Weather in Langley — Graph

°F

Langley temperature yesterday

Maximum temperature yesterday: 67 °F (at 4:00 PM)
Minimum temperature yesterday: 40 °F (at 6:00 AM)
Average temperature yesterday: 54 °F

Past Weeks' High & Low Weather Summary

 TemperatureHumidityPressure
High72 °F (Apr 20, 4:00 PM)100% (Apr 27, 6:00 AM)30.30 "Hg (Apr 27, 6:00 AM)
Low36 °F (Apr 26, 6:00 AM)33% (May 3, 7:00 PM)29.72 "Hg (Apr 24, 5:00 AM)
Average51 °F75%30.02 "Hg
* Reported Apr 19 1:00 PM — May 4 1:00 PM, Langley, Weather by CustomWeather, © 2015

Note: Actual official high and low records may vary slightly from our data, if they occured in-between our weather recording intervals... More about our weather records

Advertising

Langley weather history for previous 24 hours

 ConditionsComfort  
Time TempWeatherWind HumidityBarometerVisibility
1:00 PM
Mon, May 4
59 °FRefreshingly cool.6 mph56%29.90 "HgN/A
12:00 PM60 °FRefreshingly cool.6 mph51%29.88 "HgN/A
11:00 AM61 °FRefreshingly cool.6 mph55%29.87 "HgN/A
10:00 AM59 °FRefreshingly cool.2 mph55%29.86 "HgN/A
9:00 AM55 °FCool.2 mph68%29.86 "HgN/A
8:00 AM51 °FCool.1 mph78%29.86 "HgN/A
7:00 AM45 °FCool.No wind92%29.86 "HgN/A
6:00 AM41 °FQuite cool.No wind94%29.85 "HgN/A
5:00 AM42 °FQuite cool.No wind96%29.86 "HgN/A
4:00 AM42 °FQuite cool.No wind94%29.86 "HgN/A
3:00 AM41 °FQuite cool.No wind93%29.87 "HgN/A
2:00 AM43 °FQuite cool.1 mph94%29.86 "HgN/A
1:00 AM45 °FCool.No wind91%29.87 "HgN/A
12:00 AM47 °FCool.No wind86%29.88 "HgN/A
11:00 PM
Sun, May 3
50 °FCool.No wind82%29.87 "HgN/A
10:00 PM53 °FCool.1 mph75%29.88 "HgN/A
9:00 PM59 °FRefreshingly cool.2 mph53%29.88 "HgN/A
8:00 PM62 °FRefreshingly cool.2 mph36%29.87 "HgN/A
7:00 PM66 °FMild.2 mph33%29.88 "HgN/A
6:00 PM67 °FMild.3 mph36%29.89 "HgN/A
5:00 PM67 °FMild.6 mph36%29.91 "HgN/A
4:00 PM67 °FMild.5 mph36%29.93 "HgN/A
3:00 PM67 °FMild.6 mph47%29.96 "HgN/A
2:00 PM66 °FMild.7 mph46%29.97 "HgN/A
Weather by CustomWeather, © 2015

See weather overviewHow to use our weather pages